Погода в Ясном

Россия / Архангельская область     64°02′13″N   44°05′21″E
темп.,
°C
ветер,
м/с
пор.,
м/с
влажн.,
%
обл.,
%
осадки,
мм/ч
давл.,
гПа
погр.,
м
19 января, ср
ср1900:00−21зюз22100100 0.0 100527
03:00−15юз2599100 0.0 100493
06:00−14ююз269880 0.0 1004107
09:00−12ююз31294100 0.0 1002241
12:00−9ююз51582100 0.0 1000515
15:00−7ююз61591100 0.2 997607
18:00−7ююз51394100 0.8 995588
21:00−6ююз51392100 1.3 994498
20 января, чт
чт2000:00−6ююз51491100 0.2 993522
03:00−5ююз51494100 0.8 991565
06:00−5ююз51495100 0.6 990577
09:00−4ю51494100 1.3 990591
12:00−3ююз51490100 0.1 991640
15:00−2ююз51492100 0.2 992662
18:00−1ююз51392100 0.1 993718
21:000ююз51293100 0.3 994731
21 января, пт
пт2100:00−1ююз51192100 0.1 996668
03:00−2ю41293100 0.3 998530
06:00−3ю41193100 0.5 999586
09:00−3ю41190100 0.6 1001593
12:00−5ююз41091100 0.1 1004572
15:00−6ююз41090100 0.1 1007479
18:00−7ююз3992100 0.0 1010363
21:00−9ю3895100 0.1 1013255
22 января, сб
сб2200:00−11ю2896100 0.1 1016203
03:00−16ююв219985 0.1 101815
06:00−18ююв119955 0.0 102010
09:00−19ююв119967 0.0 10229
12:00−14ю139593 0.0 102473
15:00−16ююв1197100 0.0 102518
18:00−17юв119899 0.0 10269
21:00−18ю119830 0.0 102710
23 января, вс
вс2300:00−20ю2110025 0.0 102818
03:00−19ю11995 0.0 102913
06:00−19ю259948 0.0 103071
09:00−17ююз289732 0.0 1030148
12:00−13ююз3119460 0.0 1031300
15:00−13ююз3119435 0.0 1030262
18:00−13ююз312935 0.0 1030268
21:00−13ююз414925 0.0 1029319